Tracking 20942 objects as of 11-Jul-2020
HD Live streaming from Space Station
objects crossing your sky now

THOR ABLESTAR DEB

Track THOR ABLESTAR DEB now!
10-day predictions


NORAD ID: 408
Int'l Code: 1961-015EH
Perigee: 939.7 km
Apogee: 1,038.3 km
Inclination: 66.8 °
Period: 104.7 minutes
Semi major axis: 7360 km
RCS: 0.1296 m2 (medium)
Launch date: June 29, 1961
Source: United States (US)
Launch site: AIR FORCE EASTERN TEST RANGE (AFETR)

Note: This is SATELLITE DEBRIS
aabbcc
Your satellite tracking list
Your tracking list is empty




NASA's NSSDC Master Catalog

Two Line Element Set (TLE):
1   408U 61015EH  20192.88707080 -.00000117  00000-0 -45083-4 0  9992
2   408  66.7839 231.7300 0066994 157.2516  18.0357 13.74944227  8050
Source of the keplerian elements: AFSPC